Flag for U.S.A. Weather past 2 weeks in New York, New York, U.S.A.

Now
44 °F

Clear.


Feels Like: 41 °F
Forecast: 41 / 59 °F
Wind: 6 mph from North

Location: New York City - Central Park

Current Time: Oct 20, 2014 at 12:31:02 AM

Latest Report: Oct 19, 2014 at 11:51 PM


Visibility: 10 mi

Pressure: 30.06 "Hg

Humidity: 49%

Dew point: 26 °F

Location of New YorkLocation

Historic Weather in New York — Graph

°F

New York temperature yesterday

Maximum temperature yesterday: 56 °F (at 12:51 AM)
Minimum temperature yesterday: 45 °F (at 10:51 PM)
Average temperature yesterday: 52 °F

Past Weeks' High & Low Weather Summary

 TemperatureHumidityPressure
High77 °F (Oct 15, 1:51 PM)94% (Oct 16, 11:51 AM)30.34 "Hg (Oct 16, 11:51 AM)
Low45 °F (Oct 19, 10:51 PM)31% (Oct 9, 3:51 PM)29.56 "Hg (Oct 18, 1:51 PM)
Average61 °F63%29.97 "Hg
* Reported Oct 4 10:51 PM — Oct 19 10:51 PM, New York, Weather by CustomWeather, © 2014

Note: Actual official high and low records may vary slightly from our data, if they occured in-between our weather recording intervals... More about our weather records

Advertising

New York weather history for previous 24 hours

 ConditionsComfort  
Time TempWeatherWind HumidityBarometerVisibility
10:51 PM
Oct 19
45 °FClear.5 mph48%30.06 "Hg10 mi
9:51 PM46 °FClear.6 mph46%30.06 "Hg10 mi
8:51 PM46 °FClear.7 mph48%30.06 "Hg10 mi
7:51 PM47 °FClear.No wind44%30.03 "Hg10 mi
6:51 PM49 °FSunny.N/A41%30.01 "Hg10 mi
5:51 PM50 °FSunny.9 mph38%29.98 "Hg10 mi
4:51 PM51 °FSunny.12 mph35%29.96 "Hg10 mi
3:51 PM51 °FSunny.6 mph36%29.93 "Hg10 mi
2:51 PM52 °FSunny.12 mph37%29.91 "Hg10 mi
1:51 PM53 °FSunny.13 mph38%29.90 "Hg10 mi
12:51 PM53 °FPartly sunny.10 mph43%29.89 "Hg10 mi
11:51 AM53 °FPassing clouds.3 mph45%29.90 "Hg10 mi
10:51 AM52 °FMostly cloudy.13 mph53%29.89 "Hg10 mi
9:51 AM52 °FMore clouds than sun.N/A55%29.88 "Hg10 mi
8:51 AM51 °FOvercast.6 mph59%29.87 "Hg10 mi
7:51 AM52 °FMostly cloudy.N/A55%29.85 "Hg10 mi
6:51 AM52 °FOvercast.8 mph53%29.82 "Hg10 mi
5:51 AM54 °FOvercast.8 mph53%29.78 "Hg10 mi
4:51 AM54 °FOvercast.N/A59%29.76 "Hg10 mi
3:51 AM55 °FOvercast.8 mph57%29.75 "Hg10 mi
2:51 AM55 °FOvercast.8 mph57%29.73 "Hg10 mi
1:51 AM56 °FOvercast.8 mph58%29.72 "Hg10 mi
12:51 AM56 °FOvercast.N/A60%29.72 "Hg10 mi
Weather by CustomWeather, © 2014

See weather overviewHow to use our weather pages